Wind_Speed
21 20 19 18 17 15 13 11 11 10 10 9 8 8 8 7 6 6 6 7 7 8 9 10 11 11 12 12 12 12 13 13 13 14 14 15 15 16 16 17 17 17 17 17 17 17 16 16 16
22 21 20 19 18 16 14 13 13 13 12 11 10 10 10 8 8 7 7 7 8 9 10 11 11 12 12 12 12 13 13 14 14 15 15 16 16 17 17 18 18 18 18 18 18 18 17 17 17
23 23 22 21 19 17 15 15 16 14 13 12 12 12 11 10 9 9 9 9 9 10 11 12 12 12 12 13 13 13 14 15 15 15 16 16 17 17 18 19 19 19 19 19 19 19 18 18 18
24 23 23 22 20 19 18 17 17 16 14 13 12 12 11 11 10 10 10 10 11 11 12 13 13 13 13 14 14 14 15 16 16 16 16 17 17 18 19 20 20 20 20 20 20 19 19 19 19
25 24 23 22 20 20 20 20 18 17 16 14 14 14 12 12 12 11 11 12 12 13 13 13 14 14 14 14 15 15 16 16 17 17 17 17 18 18 19 20 20 20 20 21 21 20 20 20 19
25 24 22 21 20 21 22 21 20 18 16 17 16 14 13 12 12 12 13 12 13 14 14 14 14 14 14 15 15 16 16 17 17 17 17 18 19 19 19 20 20 21 21 21 21 21 21 21 20
25 24 22 22 22 22 23 22 22 20 18 18 17 15 14 14 14 13 13 13 13 14 15 15 14 14 15 16 17 17 17 17 18 18 18 19 19 20 20 20 21 21 21 21 22 22 22 21 21
24 23 22 22 23 23 23 23 23 22 20 20 18 17 15 15 15 13 13 13 14 15 16 16 16 16 16 17 17 17 17 17 18 18 19 20 20 21 20 21 22 22 22 22 22 23 23 22 22
23 23 22 22 23 24 24 24 24 23 22 21 18 18 16 16 16 15 14 14 14 15 16 16 17 17 17 17 17 17 17 18 18 19 20 21 21 21 21 22 22 23 24 24 24 24 24 24 24
23 22 22 23 23 24 25 25 24 23 22 21 20 17 16 17 16 15 15 15 16 17 17 18 18 18 18 17 17 18 18 19 19 20 21 22 22 23 23 23 23 24 24 25 25 26 26 26 26
22 22 22 23 24 24 25 25 24 23 21 20 19 17 17 17 17 16 16 16 17 18 18 17 17 18 18 18 18 19 19 20 20 20 21 22 23 24 24 24 25 25 26 26 26 27 27 27 27
21 22 23 23 24 24 25 25 24 22 20 20 20 18 17 17 17 17 17 18 18 18 18 18 18 19 20 19 19 20 20 20 21 22 22 23 23 24 25 25 26 26 27 27 27 27 28 29 29
21 21 23 23 23 24 25 24 24 23 21 20 20 20 19 18 18 17 18 19 19 18 19 20 20 21 21 20 20 21 22 21 21 22 22 23 24 25 25 26 27 27 28 28 29 29 30 30 30
19 20 22 22 22 23 23 23 23 22 21 21 20 20 20 19 18 17 18 18 18 19 19 20 21 21 22 23 22 23 22 21 20 21 23 24 24 25 26 27 27 28 28 29 29 29 30 30 30
18 19 21 21 22 22 23 22 21 21 21 21 20 20 20 20 19 18 18 18 19 20 20 21 22 22 22 22 22 22 21 20 21 21 22 23 24 25 26 27 27 28 28 28 29 30 30 29 30
17 18 19 19 21 21 22 21 21 21 21 21 20 20 20 20 19 19 18 18 19 21 22 21 21 21 21 21 22 20 20 20 21 22 22 23 24 25 26 27 28 28 28 28 29 29 30 30 29
16 17 18 19 20 21 22 22 21 21 21 21 21 21 21 20 19 19 19 20 20 21 21 22 20 20 19 20 21 20 21 21 22 22 23 23 24 25 27 27 27 28 28 28 29 29 30 30 30
16 17 18 19 20 21 21 22 22 21 21 20 20 21 21 21 21 21 21 21 22 22 21 22 21 20 20 21 22 22 21 21 22 23 23 23 25 26 27 27 27 28 29 29 29 30 31 31 30
16 17 17 19 21 21 21 22 22 20 20 20 20 20 20 21 22 22 22 21 21 20 20 20 19 19 20 22 22 22 21 22 22 23 23 24 25 26 27 27 27 28 29 28 29 30 30 30 30
15 16 17 18 19 20 20 20 20 20 19 19 19 20 20 20 21 20 20 20 19 19 19 19 19 20 20 21 22 21 21 22 22 23 24 24 25 26 27 28 29 29 28 29 28 29 29 29 30
14 16 17 18 18 19 20 19 19 19 20 19 19 19 20 21 21 19 19 20 20 20 20 20 20 21 21 21 20 20 21 22 23 23 24 24 25 26 27 28 29 29 29 28 28 28 28 29 30
14 15 17 18 18 19 19 20 18 19 19 19 19 20 20 20 20 20 19 19 20 20 21 21 21 21 21 21 20 20 21 21 23 23 24 24 25 26 27 28 29 30 29 27 27 27 28 29 28
14 14 15 17 18 18 18 19 17 18 18 19 19 20 19 19 20 20 19 20 20 21 22 22 21 21 22 22 21 21 21 22 23 23 23 23 24 25 26 28 28 27 26 26 26 27 28 28 27
14 15 15 16 18 18 17 18 17 17 17 18 19 19 19 19 19 18 19 19 20 22 22 22 22 22 22 22 21 21 22 22 23 22 22 23 24 25 26 27 27 27 26 25 25 26 26 26 26
13 14 15 15 16 16 17 18 16 16 17 17 17 17 18 18 18 18 19 20 21 21 21 22 21 22 22 21 20 21 22 22 23 22 22 23 23 24 25 26 26 26 25 24 25 25 25 25 25
13 13 14 16 16 15 15 16 15 15 15 16 17 18 18 18 18 19 19 20 21 21 21 21 22 22 22 21 21 22 21 21 22 22 22 23 23 24 25 25 25 26 25 25 24 24 24 24 24
12 13 14 16 17 17 16 15 13 13 15 16 17 18 19 19 19 19 18 19 20 21 21 22 22 21 20 20 21 21 21 21 22 22 22 23 24 25 25 25 25 25 25 25 25 24 24 24 23
13 14 15 17 18 18 16 15 14 14 16 16 17 18 19 19 19 20 19 20 20 20 20 21 21 20 20 21 21 22 21 21 21 21 22 23 23 24 24 24 24 25 25 26 25 25 24 24 23
14 15 16 17 18 19 19 16 15 16 16 17 18 19 19 20 21 20 19 19 19 19 19 19 19 18 19 20 21 21 20 21 21 21 22 22 23 23 24 24 25 25 26 25 25 25 24 23 23
13 14 16 17 18 19 19 18 17 17 17 17 19 20 20 21 21 20 19 19 19 18 18 18 18 18 18 19 19 19 19 19 20 21 22 22 22 23 23 24 25 25 25 25 25 24 23 23 23
Wind_Direction
227 227 227 227 225 225 224 226 230 234 233 240 249 254 264 273 277 282 287 301 308 314 318 315 312 311 314 317 319 319 319 319 319 318 317 315 315 314 314 314 312 310 308 308 307 304 302 300 297
227 228 229 230 230 227 226 230 232 236 239 243 250 259 268 269 274 283 287 299 305 307 310 310 308 310 313 315 316 315 315 314 315 314 313 313 313 312 312 311 309 308 306 304 304 302 300 299 296
227 228 230 232 233 230 227 231 235 239 244 248 255 266 267 268 274 282 285 292 300 302 305 306 304 306 310 312 312 313 312 311 310 310 310 310 310 310 309 308 307 306 304 302 301 300 297 296 294
226 228 230 231 230 231 230 234 238 242 246 252 263 266 266 269 276 284 290 292 297 299 300 302 301 305 308 310 310 309 310 308 305 306 307 307 307 307 307 307 305 303 301 300 300 299 297 294 293
226 228 230 229 228 230 231 234 240 242 248 255 263 267 263 269 277 283 292 293 293 293 294 299 302 304 307 308 308 309 308 306 303 304 305 305 305 306 306 305 303 301 299 298 298 297 296 292 290
227 228 229 228 228 229 232 235 239 244 247 255 260 267 278 280 282 287 291 291 289 289 292 297 300 303 305 305 307 307 306 304 301 300 300 302 303 303 303 302 300 299 297 296 295 295 292 289 288
227 228 227 227 228 229 232 236 239 242 244 253 259 269 275 279 282 285 290 289 284 289 293 295 297 300 302 303 303 303 302 301 300 298 298 300 300 301 301 300 298 297 296 294 292 292 290 288 286
226 227 226 226 227 229 232 238 242 243 245 251 258 267 273 274 278 282 289 292 286 287 290 292 295 297 300 300 300 300 299 298 298 296 297 298 298 299 299 297 296 296 295 294 291 290 287 286 284
224 225 224 226 229 231 234 238 241 245 247 250 256 265 270 276 278 282 289 293 293 292 289 289 293 294 295 297 298 298 298 297 295 294 295 296 296 295 296 295 294 294 293 292 290 288 286 285 284
223 223 223 227 230 232 236 239 242 245 247 253 259 263 268 278 281 282 289 291 291 292 289 288 289 291 292 294 295 297 296 295 294 293 293 294 294 295 295 293 293 293 291 290 290 288 285 284 282
223 223 223 227 230 233 237 241 244 247 250 254 260 262 270 279 281 283 287 289 290 290 289 288 289 291 292 291 292 295 293 291 291 292 291 292 293 294 295 295 295 294 292 291 291 288 286 283 281
225 224 226 229 232 234 237 242 245 250 256 258 263 269 272 278 280 282 283 285 286 288 290 290 291 290 290 288 287 289 290 289 289 290 290 291 293 295 295 295 293 293 292 292 292 289 287 284 281
224 223 226 230 234 236 238 242 250 258 261 263 267 270 270 271 275 279 280 281 282 282 285 289 287 286 285 286 287 290 290 288 289 291 290 292 293 294 294 293 294 293 292 292 292 290 289 284 281
225 227 230 232 234 237 241 246 253 259 262 264 266 268 270 272 273 276 277 277 279 278 281 284 285 287 288 290 290 290 288 288 290 292 295 293 293 293 294 293 293 292 292 292 291 291 290 287 283
228 230 232 234 235 239 244 250 255 258 261 261 263 270 271 270 272 274 276 277 279 280 283 285 284 286 289 289 291 290 287 288 292 294 295 295 295 294 294 295 294 293 293 292 292 291 292 289 284
229 231 233 234 238 244 247 250 252 256 259 261 263 267 269 268 267 270 273 275 278 280 282 282 282 286 287 287 290 287 287 291 292 292 293 294 296 297 297 297 295 293 294 293 293 292 292 290 288
233 235 237 238 242 247 249 252 252 257 261 262 264 267 268 271 271 273 272 274 277 279 281 285 282 286 286 287 291 286 287 290 291 293 295 296 297 299 299 299 296 294 293 294 293 292 293 292 289
238 240 241 244 245 250 254 256 257 258 261 264 267 268 270 273 275 276 273 273 277 280 283 284 282 284 287 288 291 289 287 290 292 293 295 296 298 298 300 300 298 297 295 295 294 294 293 291 290
245 247 248 249 249 251 254 258 260 264 266 267 271 270 271 272 274 278 279 277 276 279 281 282 283 285 287 288 290 290 287 289 293 294 295 297 299 300 300 301 299 299 296 296 296 296 295 293 291
249 250 251 252 252 252 255 259 261 265 268 270 271 272 275 276 276 279 278 278 277 280 284 283 284 289 289 293 295 293 289 292 294 296 297 298 300 301 301 301 301 301 298 298 299 298 297 295 293
249 251 254 255 255 255 257 258 262 266 267 269 271 273 276 277 276 275 277 276 279 282 285 286 285 287 289 292 292 294 295 295 296 296 298 299 300 301 301 302 301 302 300 299 299 298 297 296 294
253 255 257 258 260 260 263 264 262 267 269 273 275 276 277 275 272 274 277 278 280 282 285 287 285 286 290 293 295 296 298 296 296 297 300 301 302 303 305 305 305 304 299 299 299 298 297 298 296
260 262 260 260 261 263 267 270 268 269 272 274 274 275 275 272 273 277 279 280 282 282 285 286 288 290 289 290 291 293 295 297 299 299 303 305 305 306 308 308 309 308 304 302 301 300 299 300 297
267 266 267 268 267 269 272 273 273 273 274 274 273 276 276 275 277 278 279 281 285 284 283 287 288 289 287 285 286 291 293 298 301 301 303 305 306 308 309 310 310 310 307 306 305 304 303 301 298
273 273 276 274 273 274 277 279 281 278 275 276 277 279 278 279 279 279 280 280 283 282 281 285 287 288 285 284 284 288 294 298 300 301 303 305 307 309 310 310 309 310 310 310 307 306 305 303 300
276 278 279 283 283 282 282 286 291 285 281 280 281 282 280 282 281 281 282 281 282 282 282 284 287 288 287 285 287 290 293 298 301 303 304 306 308 309 311 311 310 310 311 312 311 309 307 304 302
278 279 282 285 286 288 291 293 292 288 285 285 286 286 284 285 286 284 282 283 281 282 283 286 288 289 288 288 290 292 295 299 302 303 304 307 309 310 312 313 313 313 313 313 312 310 310 307 305
280 283 285 286 290 291 293 295 297 293 291 288 289 287 285 283 285 284 282 284 283 282 283 285 287 287 287 289 292 295 296 297 300 302 305 307 309 311 313 314 315 314 314 314 312 310 309 310 308
281 281 282 284 287 291 294 296 301 297 295 290 290 288 285 285 286 284 283 283 284 283 283 284 286 285 287 290 292 294 294 295 298 302 306 307 308 311 313 313 314 314 314 314 313 310 309 310 308
281 281 282 285 287 287 291 296 298 297 294 290 291 291 288 287 284 282 281 283 284 283 284 283 285 286 290 293 293 295 294 296 298 303 307 308 310 311 313 315 315 314 314 315 314 313 312 312 310
Height
5875 5877 5879 5881 5883 5885 5886 5887 5887 5887 5888 5889 5889 5890 5891 5892 5892 5894 5893 5892 5892 5892 5892 5892 5891 5890 5890 5889 5888 5887 5887 5886 5885 5884 5884 5883 5883 5882 5881 5881 5880 5879 5878 5877 5877 5876 5875 5875 5874
5872 5874 5877 5879 5880 5882 5885 5885 5885 5885 5886 5887 5887 5888 5888 5889 5890 5890 5890 5890 5890 5890 5890 5890 5890 5889 5888 5888 5887 5886 5885 5884 5884 5883 5882 5881 5880 5880 5879 5878 5877 5877 5876 5875 5874 5873 5873 5872 5871
5869 5871 5874 5876 5878 5880 5883 5883 5883 5883 5884 5885 5886 5886 5886 5887 5888 5888 5888 5889 5889 5889 5888 5888 5888 5887 5886 5886 5885 5884 5883 5883 5882 5881 5880 5879 5878 5877 5876 5875 5874 5874 5873 5872 5871 5870 5869 5869 5868
5865 5868 5871 5873 5875 5878 5880 5880 5881 5881 5882 5883 5883 5884 5885 5886 5886 5886 5886 5886 5887 5887 5886 5886 5886 5885 5885 5884 5883 5882 5881 5880 5880 5879 5878 5877 5876 5875 5874 5872 5871 5870 5869 5868 5868 5867 5866 5865 5865
5862 5865 5867 5870 5873 5875 5876 5877 5878 5879 5880 5880 5881 5882 5882 5883 5883 5883 5884 5884 5884 5884 5884 5884 5884 5883 5882 5882 5881 5880 5879 5878 5877 5876 5875 5874 5873 5872 5871 5870 5868 5867 5866 5865 5864 5863 5863 5862 5861
5859 5861 5865 5867 5870 5872 5873 5874 5875 5877 5878 5879 5880 5880 5880 5881 5881 5881 5881 5882 5882 5882 5882 5882 5881 5881 5880 5879 5878 5878 5877 5876 5874 5874 5873 5872 5871 5869 5868 5867 5865 5864 5863 5862 5861 5860 5859 5858 5857
5856 5858 5861 5864 5866 5868 5870 5871 5873 5874 5875 5876 5877 5878 5879 5879 5879 5879 5879 5879 5880 5880 5879 5879 5879 5878 5877 5877 5876 5875 5874 5873 5872 5871 5870 5869 5868 5866 5865 5863 5862 5861 5859 5858 5857 5856 5855 5854 5853
5852 5856 5857 5860 5863 5865 5867 5868 5869 5871 5872 5873 5875 5876 5876 5877 5876 5876 5876 5877 5877 5877 5877 5876 5876 5875 5875 5874 5873 5872 5871 5870 5869 5868 5867 5866 5864 5863 5861 5860 5858 5857 5856 5854 5853 5852 5851 5850 5849
5848 5853 5854 5857 5860 5862 5863 5865 5866 5868 5870 5871 5872 5874 5874 5874 5873 5874 5874 5874 5874 5874 5874 5873 5873 5872 5872 5871 5870 5869 5868 5867 5866 5864 5863 5862 5860 5859 5857 5856 5854 5853 5851 5850 5849 5848 5847 5846 5845
5845 5849 5852 5854 5856 5858 5859 5861 5863 5865 5867 5868 5869 5870 5871 5871 5871 5872 5872 5872 5872 5871 5870 5870 5870 5869 5868 5867 5866 5865 5864 5863 5862 5860 5859 5858 5856 5855 5853 5851 5850 5848 5846 5845 5844 5843 5841 5840 5839
5842 5846 5849 5851 5852 5854 5856 5858 5860 5862 5863 5865 5866 5867 5868 5868 5869 5869 5869 5869 5868 5868 5867 5867 5866 5866 5865 5864 5863 5862 5860 5859 5858 5857 5855 5854 5852 5850 5849 5847 5845 5843 5842 5840 5839 5837 5836 5835 5833
5840 5843 5845 5847 5849 5851 5853 5854 5856 5858 5860 5861 5862 5863 5864 5865 5866 5866 5866 5865 5865 5864 5864 5863 5863 5862 5861 5860 5859 5857 5856 5855 5854 5853 5851 5849 5848 5846 5844 5842 5840 5839 5837 5835 5833 5832 5830 5828 5827
5837 5840 5842 5844 5846 5849 5850 5852 5853 5854 5856 5858 5858 5859 5860 5861 5862 5862 5862 5862 5861 5861 5860 5859 5859 5858 5857 5856 5855 5853 5852 5851 5849 5848 5846 5845 5843 5841 5839 5837 5835 5833 5831 5829 5827 5825 5823 5822 5820
5834 5837 5839 5842 5844 5846 5848 5849 5851 5852 5853 5855 5856 5856 5857 5858 5858 5858 5858 5858 5857 5857 5856 5855 5854 5854 5853 5852 5851 5849 5848 5846 5845 5843 5842 5840 5838 5836 5834 5832 5830 5827 5825 5822 5820 5818 5816 5814 5812
5833 5836 5838 5839 5841 5843 5845 5847 5848 5849 5850 5851 5852 5852 5853 5853 5854 5854 5854 5854 5853 5852 5852 5851 5850 5849 5848 5848 5846 5844 5843 5842 5840 5839 5837 5835 5833 5831 5829 5826 5824 5821 5818 5816 5813 5811 5809 5807 5805
5831 5834 5836 5837 5838 5840 5843 5844 5845 5845 5847 5847 5848 5848 5849 5849 5849 5849 5850 5849 5849 5848 5847 5846 5846 5844 5843 5842 5841 5840 5838 5837 5836 5834 5832 5830 5828 5825 5823 5820 5817 5814 5812 5809 5807 5804 5802 5799 5797
5829 5831 5833 5835 5836 5837 5839 5840 5842 5842 5843 5844 5844 5844 5844 5845 5845 5845 5845 5845 5844 5843 5842 5841 5840 5840 5838 5837 5837 5835 5833 5832 5830 5829 5827 5825 5822 5820 5817 5814 5811 5808 5805 5803 5800 5798 5795 5792 5789
5827 5829 5830 5832 5832 5834 5835 5837 5838 5839 5839 5840 5840 5841 5841 5841 5841 5841 5840 5840 5839 5838 5837 5837 5836 5835 5834 5833 5832 5830 5828 5827 5825 5823 5821 5819 5816 5814 5811 5808 5805 5802 5799 5796 5793 5790 5787 5784 5781
5826 5827 5828 5829 5830 5831 5832 5833 5834 5835 5835 5836 5837 5837 5837 5837 5837 5837 5836 5834 5834 5834 5833 5832 5831 5830 5829 5828 5826 5824 5823 5821 5820 5817 5815 5813 5810 5807 5804 5801 5798 5795 5792 5789 5786 5782 5779 5776 5773
5824 5825 5826 5827 5827 5828 5829 5830 5831 5832 5832 5833 5833 5833 5833 5833 5833 5832 5831 5830 5829 5829 5828 5827 5826 5825 5824 5822 5820 5818 5817 5815 5814 5812 5809 5807 5804 5801 5798 5795 5792 5788 5785 5782 5778 5775 5772 5769 5766
5822 5823 5823 5824 5824 5825 5825 5827 5828 5828 5829 5830 5830 5830 5829 5829 5828 5828 5827 5826 5825 5825 5823 5823 5821 5820 5818 5816 5814 5813 5812 5810 5808 5806 5803 5801 5798 5796 5792 5789 5785 5781 5777 5774 5771 5768 5765 5762 5758
5819 5820 5820 5821 5821 5822 5823 5823 5825 5825 5826 5826 5826 5826 5825 5824 5824 5823 5822 5821 5820 5820 5819 5818 5816 5814 5813 5811 5809 5808 5807 5805 5803 5801 5798 5795 5792 5790 5786 5782 5778 5774 5770 5767 5764 5761 5758 5755 5751
5817 5817 5818 5818 5818 5819 5819 5819 5822 5821 5822 5822 5821 5821 5820 5820 5819 5818 5817 5816 5815 5814 5814 5813 5811 5809 5808 5806 5805 5803 5802 5800 5798 5795 5792 5789 5786 5784 5780 5776 5773 5768 5764 5761 5757 5754 5751 5748 5744
5815 5815 5815 5815 5815 5816 5816 5816 5817 5817 5817 5817 5817 5816 5815 5815 5814 5813 5812 5811 5810 5809 5808 5807 5805 5804 5802 5801 5799 5798 5796 5794 5792 5789 5787 5784 5781 5778 5775 5771 5767 5763 5759 5755 5751 5748 5744 5741 5738
5813 5813 5813 5812 5812 5813 5813 5812 5814 5813 5813 5812 5812 5811 5810 5810 5809 5808 5807 5806 5805 5804 5803 5802 5800 5798 5797 5795 5794 5792 5790 5789 5787 5784 5782 5779 5776 5773 5769 5765 5762 5758 5753 5750 5746 5742 5739 5735 5732
5810 5811 5811 5810 5809 5809 5810 5809 5810 5809 5809 5808 5807 5806 5806 5805 5804 5803 5802 5801 5800 5798 5797 5796 5794 5793 5791 5790 5788 5787 5786 5784 5781 5779 5777 5774 5771 5768 5764 5760 5756 5752 5748 5744 5740 5737 5733 5729 5726
5807 5807 5808 5807 5806 5805 5806 5806 5806 5805 5804 5804 5803 5802 5801 5800 5799 5798 5797 5795 5794 5793 5791 5790 5789 5787 5786 5785 5783 5782 5780 5778 5776 5774 5771 5769 5766 5762 5758 5755 5751 5747 5743 5739 5735 5731 5728 5724 5720
5805 5804 5804 5804 5802 5801 5802 5802 5802 5801 5800 5799 5798 5797 5796 5795 5794 5793 5792 5790 5789 5787 5786 5784 5783 5782 5781 5779 5778 5776 5775 5773 5771 5768 5766 5763 5760 5757 5753 5749 5746 5742 5738 5734 5730 5726 5722 5719 5715
5802 5802 5801 5800 5799 5798 5797 5800 5799 5796 5795 5794 5793 5791 5790 5790 5789 5787 5786 5785 5784 5782 5781 5779 5778 5777 5776 5774 5773 5771 5769 5768 5766 5763 5761 5758 5755 5751 5748 5744 5740 5736 5732 5728 5724 5720 5717 5713 5710
5798 5798 5798 5797 5796 5795 5793 5797 5794 5792 5790 5789 5788 5787 5785 5784 5783 5781 5780 5780 5778 5777 5776 5775 5774 5772 5771 5769 5768 5766 5765 5763 5760 5758 5756 5753 5749 5746 5742 5739 5735 5731 5727 5723 5719 5715 5712 5708 5705